Regional Weather Roundup
Issued by NWS

Home | Current Version | Previous Version | Graphics & Text | Print | Product List | Glossary On
Versions: 1 2 3 4 5 6 7 8 9 10 11 12 13 14 15 16 17 18 19 20 21 22 23 24 25 26 27 28 29 30 31 32 33 34 35 36 37 38 39 40 41 42 43 44 45 46 47 48 49 50
000
ASUS45 KTFX 280719
RWRMT
MONTANA HOURLY WEATHER ROUNDUP
NATIONAL WEATHER SERVICE GREAT FALLS MT
119 AM MDT SAT MAR 28 2015

NOTE: "FAIR" INDICATES FEW OR NO CLOUDS BELOW 12000 FEET WITH NO
SIGNIFICANT WEATHER AND/OR OBSTRUCTIONS TO VISIBILITY.

* THESE STATIONS ARE NOT UNDER NWS QUALITY CONTROL. THEY DO NOT
   REPORT WEATHER SUCH AS PRECIPITATION OR FOG.

MTZ001>007-043-280800-
WEST OF THE DIVIDE
CITY           SKY/WX    TMP DP  RH WIND       PRES   REMARKS
KALISPELL      FOG       37  37 100 CALM      29.81F VSB 1 1/4
MISSOULA       CLEAR     45  37  74 CALM      29.90F
BUTTE          CLEAR     36  30  79 SE8       30.03F WCI  30
MULLAN PASS    CLOUDY    46  37  71 S7        29.95F
* ESSEX        N/A       41  36  82 W3         N/A
* EUREKA APT   PTCLDY    45  39  80 CALM      29.81F
* HAMILTON APT CLEAR     54  36  51 S12       29.90F
* LIBBY APT    PTCLDY    43  39  86 CALM      29.84F
* LINCOLN      N/A       38  32  79 NE1        N/A
* LOOKOUT PASS N/A       44  38  80 S2         N/A
* POLSON       N/A       52  39  61 N/A        N/A
* RONAN APT    CLEAR     46  39  77 N/A        N/A
* SEELEY LAKE  N/A       35  31  85 N/A        N/A
* THOMP F APT  PTCLDY    46  29  52 E5G10      N/A
* YAAK HILL    N/A       48  44  86 SE1        N/A
$$

MTZ008-052>055-280800-
SOUTHWEST MONTANA
CITY           SKY/WX    TMP DP  RH WIND       PRES   REMARKS
BOZEMAN        CLEAR     48  32  54 SE9       29.99F
DILLON         CLEAR     45  28  51 SW9       30.02F
* W YELLOWSTON CLEAR     31  27  85 N/A        N/A
* THREE FORKS  CLEAR     43  36  76 N/A        N/A
* TWIN BRIDGES CLEAR     45  28  51 E6         N/A
* BOULDER HILL N/A       49  24  38 SW8        N/A
* HOMESTAKE PS N/A       42  29  60 N/A        N/A
* MONIDA PASS  N/A       43  29  58 SE14       N/A
* RAYNOLDS PAS N/A       38  26  62 SW11       N/A   WCI  31
* WHITEHALL    N/A       51  29  43 W6         N/A
* WISE RIVER   N/A       39  30  70 E5         N/A   WCI  35
$$

MTZ009>010-012-014-046-048-049-054-280800-
EAST SLOPES AND CENTRAL MONTANA
CITY           SKY/WX    TMP DP  RH WIND       PRES   REMARKS
CUT BANK       MOCLDY    50  36  59 W13       29.81F
GREAT FALLS    MOCLDY    48  34  59 S10       29.87F
HELENA         CLEAR     50  34  54 W3        29.92F
* DEARBORN     N/A       50  36  59 S4         N/A
* EAST GLACIER N/A       55  34  45 NW6G17     N/A
* MONARCH      N/A       45  25  45 S9         N/A
* PENDROY      N/A       53  30  41 W6G16      N/A
* ROGERS PASS  N/A       54  31  42 NW3G9      N/A
* SAINT MARY   N/A       55  36  49 SW6G14     N/A
* WHITE SULPH  N/A       42  30  63 NE5G14     N/A
$$

MTZ011-013-016-021-035-040-045-047-050-051-280800-
NORTH CENTRAL MONTANA
CITY           SKY/WX    TMP DP  RH WIND       PRES   REMARKS
HAVRE          CLOUDY    46  36  68 SW6       29.79F
LEWISTOWN      CLEAR     43  30  60 SE7       29.92F
* N BAR RANCH  CLEAR     45  28  51 CALM      29.94F
* CHINOOK      MOCLDY    46  36  68 E5        29.79F
* CHESTER      N/A       45  34  65 N/A        N/A
* DENTON       N/A       47  31  54 S12        N/A
* GEYSER       N/A       50  31  48 S12        N/A
* JUDITH GAP   N/A       46  28  50 SE4        N/A
* LOMA         N/A       49  32  52 W6         N/A
$$

MTZ017>020-022>027-061-062-280800-
NORTHEAST MONTANA
CITY           SKY/WX    TMP DP  RH WIND       PRES   REMARKS
GLASGOW        CLEAR     43  36  76 E14       29.83F
GLENDIVE       PTCLDY    41  34  76 CALM      29.89F
JORDAN         CLEAR     37  34  89 W3        29.86F
SIDNEY         CLEAR     36  30  79 CALM      29.89F
WOLF POINT     CLEAR     39  36  89 NE7       29.87F WCI  34
* BEAVER HILL  N/A       44  35  71 SE17       N/A
* CIRCLE       N/A       45  35  68 N/A        N/A
* LINDSAY DVD  N/A       45  34  65 NE6        N/A
* NAVAJO       N/A       38  36  93 SE4        N/A
* PLENTYWOOD A CLEAR     37  36  96 SE6       29.89F WCI  32
* POPLAR APT   CLEAR     39  36  89 NE5       29.87F WCI  35
* SACO         N/A       41  33  73 SE8        N/A
$$

MTZ028>042-056>058-280800-
SOUTHCENTRAL AND SOUTHEAST MONTANA
CITY           SKY/WX    TMP DP  RH WIND       PRES   REMARKS
BAKER          MOCLDY    41  34  76 SE7       29.92S
BILLINGS       FAIR      57  32  39 SW12      29.92F
LIVINGSTON     CLEAR     61  30  31 SW17G24   29.97F
MILES CITY     PTCLDY    46  34  63 SE8       29.88F
* BIG TIMBER A CLEAR     59  32  36 CALM      29.97F
* FORSYTH APT  CLEAR     45  30  56 CALM      29.88S
* LAUREL APT   CLEAR     48  30  50 W5         N/A
* ROUNDUP APT  PTCLDY    46  25  44 S6         N/A
* ALZADA       N/A       42  33  71 E4         N/A
* HYSHAM       N/A       55  24  30 W5         N/A
* LAME DEER    N/A       51  28  41 S6         N/A
* REED POINT   N/A       45  33  63 W5         N/A
* ROSCOE HILL  N/A       58  19  22 SW8G16     N/A
$$

REGIONAL REPORTS...DAKOTAS
CITY           SKY/WX    TMP DP  RH WIND       PRES   REMARKS
WILLISTON      CLEAR     36  34  92 E3        29.91S
DICKINSON      CLEAR     32  28  85 S7        29.91S WCI  25
BEACH          CLEAR     39  36  89 S13       29.92S WCI  31
CROSBY         FOG       27  27 100 E5        29.93S VSB 3    WCI  21
TIOGA          CLEAR     28  28 100 SE6       29.95S WCI  21
WATFORD CITY   CLEAR     32  32 100 CALM      29.90S
BISMARCK       PTCLDY    28  27  96 NE8       29.98R WCI  20
GRAND FORKS    CLEAR     23  19  85 SE6       30.10F WCI  16
FARGO          MOCLDY    28  18  66 SE7       30.11S WCI  21
BUFFALO SD     CLEAR     39  32  76 S12       29.88S WCI  32
RAPID CITY     PTCLDY    41  32  70 NE10      29.96S
$$

REGIONAL REPORTS...WYOMING/IDAHO/WASHINGTON
CITY           SKY/WX    TMP DP  RH WIND       PRES   REMARKS
GILLETTE       CLEAR     36  30  79 VRB3      29.98F
SHERIDAN       PTCLDY    48  28  46 CALM      29.95F
CODY           CLEAR     59  30  33 W14G22    30.02F
YELLOWSTONE LA CLEAR     27  25  92 CALM      30.22F
SALMON         CLEAR    N/A N/A N/A S3        29.99F
MULLAN PASS    CLOUDY    46  37  71 S7        29.95S
SAND POINT     MOCLDY    46  46 100 CALM      29.83S
SPOKANE        LGT RAIN  57  48  72 SW13      29.84F
$$

REGIONAL REPORTS...ALBERTA
CITY           SKY/WX    TMP DP  RH WIND       PRES   REMARKS
CALGARY        FAIR      46  25  44 S7        29.67F
LETHBRIDGE     CLEAR     48  37  66 SW16G23   29.74F
MEDICINE HAT   CLOUDY    55  41  59 VRB3      29.69F
EDMONTON       MOCLDY    39  36  89 S6        29.54F WCI  35
WATERTON GATE  N/A       52  27  38 SW6        N/A
CARDSTON       N/A       48  36  63 S2         N/A
MILK RIVER     N/A       48  37  66 SW7        N/A
$$

REGIONAL REPORTS...SASKATCHEWAN
CITY           SKY/WX    TMP DP  RH WIND       PRES   REMARKS
SWIFT CURRENT  CLEAR     43  37  79 S16G22    29.74F
REGINA         FAIR      32  32 100 SE14      29.88F WCI  22
VAL MARIE      N/A       45  37  74 S3         N/A
ASSINIBOIA     N/A       37  36  96 SE7        N/A   WCI  32
CORONACH       N/A       36  34  92 SE7        N/A   WCI  30

$$




USA.gov is the U.S. government's official web portal to all federal, state and local government web resources and services.